Regional Weather Roundup
Issued by NWS

Current Version | Previous Version | Text Only | Print | Product List | Glossary On
Versions: 1 2 3 4 5 6 7 8 9 10 11 12 13 14 15 16 17 18 19 20 21 22 23 24 25 26 27 28 29 30 31 32 33 34 35 36 37 38 39 40 41 42 43 44 45 46 47 48 49 50
000
ASUS42 KTBW 221610
RWRFL
FLORIDA REGIONAL WEATHER ROUNDUP
NATIONAL WEATHER SERVICE TAMPA BAY RUSKIN FL
1200 PM EDT TUE JUL 22 2014

NOTE: "FAIR" INDICATES FEW OR NO CLOUDS BELOW 12,000 FEET WITH NO
SIGNIFICANT WEATHER AND/OR OBSTRUCTIONS TO VISIBILITY.


FLZ001>010-012>015-112-114-115-221700-
PANHANDLE FLORIDA

CITY           SKY/WX    TMP DP  RH WIND       PRES   REMARKS
PENSACOLA      TSTM      81  74  79 W9        30.05S
PENSACOLA NAS  PTSUNNY   85  76  74 SE10      30.04S THUNDER
MILTON NAS     PTSUNNY   85  71  63 SE6       30.06S
CRESTVIEW      MOSUNNY   83  74  74 S8        30.08S
DUKE FIELD     PTSUNNY   82  77  83 SE8       30.07R THUNDER
VALPARAISO     PTSUNNY   83  74  73 SE10      30.06R THUNDER
MARY ESTHER    SUNNY     83  70  64 S8        30.05S
TRI COUNTY     PTSUNNY   84  72  67 NE6       30.08F
PANAMA CITY    FAIR      83  71  67 SE6       30.06S
TYNDALL AFB    MOSUNNY   84  74  70 S5        30.08S
APALACHICOLA   MOSUNNY   85  72  65 VRB5      30.07S

STATION/POSITION SKY/WX   TEMP    WIND        PRES    WAVE   SWELL
                          AIR SEA DIR/SP/G            HT/PER HT/PER
                          (F)     (DEG/KT/KT) (MB)    (FT/S) (FT/S)
30.1N   87.6W              82 83  150/  8/  8 1017.3S   1/ 4
29.2N   88.2W              84 85   CALM  /  2 1017.7
28.8N   86.0W              83 83  190/  6/  8 1017.9    1/ 4
PANAMA CITY BEAC           81 81  140/ 10/ 12 1018.2R
CAPE SAN BLAS    NOT AVBL
TOWER C                    81      CALM  /  1 1018.1S
28.5N   84.5W              83 86   CALM  /  2 1017.9F   1/ 8

$$
FLZ011-016>038-118-127-128-134-139-239-221700-
NORTH FLORIDA

CITY           SKY/WX    TMP DP  RH WIND       PRES   REMARKS
MARIANNA       CLOUDY    85  72  65 VRB5      30.08F
TALLAHASSEE    PTSUNNY   87  67  51 W7        30.07F
PERRY          SUNNY     82  70  65 S3        30.08S
CROSS CITY       N/A     86  74  67 CALM      30.07F
GAINESVILLE    PTSUNNY   83  73  72 VRB3      30.07F
MAYPORT NAS    PTSUNNY   85  74  69 NE12      30.09S
JACKSONVILLE   MOSUNNY   86  72  62 E3        30.08F
JAX NAS        MOSUNNY   88  71  57 N6        30.09F
JAX CRAIG      MOSUNNY   84  73  69 VRB3      30.09S
JAX CECIL      PTSUNNY   86  73  66 VRB6      30.08F
FERNANDINA BEA FAIR      84  72  65 E9        30.08S
ST AUGUSTINE   MOSUNNY   88  75  65 NE10      30.09S HX  97

STATION/POSITION SKY/WX   TEMP    WIND        PRES    WAVE   SWELL
                          AIR SEA DIR/SP/G            HT/PER HT/PER
                          (F)     (DEG/KT/KT) (MB)    (FT/S) (FT/S)
SHELL POINT                81      80/  4/  7   N/A
KEATON BEACH               80     210/  4/  6 1018.3F
CEDAR KEY                  79     130/  2/  3 1019.0S
FERNANDINA                 82 84   20/  5/  6 1018.6S
30.7N   81.3W                 84                N/A     2/ 7
MAYPORT                    81 85   60/ 10/ 12   N/A
31.4N   80.9W              79 84  350/  8/ 10 1019.5R   2/ 8   2/ 8
ST AUGUSTINE               81      20/  9/ 10 1019.7S

$$
FLZ040-043>046-052-053-057-058-063-144-221700-
INTERIOR CENTRAL FLORIDA

CITY           SKY/WX    TMP DP  RH WIND       PRES   REMARKS
OCALA          PTSUNNY   86  70  58 CALM      30.08F
LEESBURG       SUNNY     87  74  64 SE3       30.09S HX  95
SANFORD        MOSUNNY   86  74  67 CALM      30.07F
ORLANDO EXEC   SUNNY     87  73  62 CALM      30.08R
ORLANDO INTL   MOSUNNY   85  73  67 S6        30.07S
KISSIMMEE      PTSUNNY   86  77  74 CALM      30.08S HX  97
WINTER HAVEN   MOSUNNY   85  73  67 VRB5      30.09F
LAKELAND       PTSUNNY   84  73  70 CALM      30.08S
BARTOW         MOSUNNY   84  73  70 CALM      30.08F
OKEECHOBEE     SUNNY     86  73  66 MISG      30.07F

$$
FLZ041-047-054-059-064-141-147-221700-
EAST CENTRAL FLORIDA

CITY           SKY/WX    TMP DP  RH WIND       PRES   REMARKS
ORMOND BEACH   PTSUNNY   84  75  74 E9        30.08S
DAYTONA BEACH  MOSUNNY   85  76  74 E8        30.08S
DELAND         PTSUNNY   86  73  66 CALM      30.09S
NEW SMYRNA BEA PTSUNNY   86  77  74 E12       30.08S HX  97
JFK SPACE CTR  MOSUNNY   84  79  86 CALM      30.07S HX  96
TITUSVILLE     PTSUNNY   84  75  74 CALM      30.07S
CAPE CANAVERAL MOSUNNY   85  75  73 SE8       30.07R
PATRICK AFB    MOSUNNY   86  77  73 E6        30.07S HX  96
MELBOURNE      PTSUNNY   88  74  63 SW5       30.06S HX  96
VERO BEACH     MOSUNNY   87  77  72 SW7       30.07S HX  99
FT PIERCE      MOSUNNY   89  74  60 SW7       30.06S HX  98
STUART         PTSUNNY   86  73  66 S7        30.07S

STATION/POSITION SKY/WX   TEMP    WIND        PRES    WAVE   SWELL
                          AIR SEA DIR/SP/G            HT/PER HT/PER
                          (F)     (DEG/KT/KT) (MB)    (FT/S) (FT/S)
28.5N   80.2W              82 83  190/  4/  6 1018.8R
28.9N   78.5W              82 83  180/ 10/ 14 1019.4R   5/ 7   5/ 7
TRIDENT PIER               86 86  130/  5/  7 1017.8S
28.4N   80.5W                 85                N/A     2/ 7
27.6N   80.2W                 84                N/A     2/ 8

$$
FLZ050-056-061-142-242-148-248-149-249-151-251-155-255-
160-260-221700-
WEST CENTRAL FLORIDA

CITY           SKY/WX    TMP DP  RH WIND       PRES   REMARKS
CRYSTAL RIVER  FAIR      86  72  62 CALM      30.07F
INVERNESS      FAIR      86  70  58 CALM      30.08F
BROOKSVILLE    MOSUNNY   85  73  67 VRB3      30.08F
ZEPHYRHILLS    FAIR      82  79  89 CALM      30.09F
CLEARWATER     MOSUNNY   85  77  77 NE8       30.07F HX  95
TAMPA INTL     PTSUNNY   83  73  72 SW8       30.08S
TAMPA EXEC     MOSUNNY   88  73  62 CALM      30.08S HX  96
PLANT CITY     MOSUNNY   88  73  62 CALM      30.10S HX  96
MACDILL AFB    SUNNY     87  78  74 VRB1      30.07F HX  99
ST PETERSBURG  SUNNY     83  75  77 SE5       30.05F
SARASOTA       SUNNY     86  72  62 W5        30.05F
VENICE         FAIR      84  75  74 SW7       30.07F

STATION/POSITION SKY/WX   TEMP    WIND        PRES    WAVE   SWELL
                          AIR SEA DIR/SP/G            HT/PER HT/PER
                          (F)     (DEG/KT/KT) (MB)    (FT/S) (FT/S)
CEDAR KEY                  79     130/  2/  3 1019.0S
28.5N   84.5W              83 86   CALM  /  2 1017.9F   1/ 8
27.3N   84.3W                 87                N/A     1/ 4
CLEARWATER BEACH           83 87  250/  3/  4 1017.9F
MIDDLE TAMPA BAY           82     280/  2/  3 1018.6F
VENICE                     83 88  240/  5/  6 1017.7F

$$
FLZ066-069-070-075>078-162-262-165-265-221700-
SOUTHWEST FLORIDA AND KEYS

CITY           SKY/WX    TMP DP  RH WIND       PRES   REMARKS
PUNTA GORDA    PTSUNNY   88  75  65 SW6       30.08S HX  97
FT MYERS       CLOUDY    86  76  71 W9        30.05F HX  96
SOUTHWEST INTL MOSUNNY   86  75  69 CALM      30.05F HX  95
NAPLES         LGT RAIN  81  80  97 SE3       30.06S
MARATHON       PTSUNNY   81  76  84 E6        30.08R
KEY WEST NAS   LGT RAIN  78  73  84 SE10      30.08F VSB 1
KEY WEST INTL  LGT RAIN  79  72  79 S10       30.08S

STATION/POSITION SKY/WX   TEMP    WIND        PRES    WAVE   SWELL
                          AIR SEA DIR/SP/G            HT/PER HT/PER
                          (F)     (DEG/KT/KT) (MB)    (FT/S) (FT/S)
VENICE                     83 88  240/  5/  6 1017.7F
NAPLES                     83 92  190/  2/  5 1018.5R
DRY TORTUGAS               81     210/  5/  6 1018.4R
NW FL BAY                  82     260/ 10/ 13 1018.8R
SAND KEY                   78     110/  4/  5 1018.6F
SOMBRERO KEY               78     360/  6/  8 1019.6R
LONG KEY                   76 87   50/  8/ 10 1019.5R
MOLASSES REEF              79 86  280/ 23/ 24 1018.2F

$$
FLZ067-068-071>074-168-172>174-221700-
SOUTHEAST FLORIDA

CITY           SKY/WX    TMP DP  RH WIND       PRES   REMARKS
W PALM BEACH   PTSUNNY   89  77  67 SW12      30.05S HX 101
FT LAUDER-EXEC PTSUNNY   83  75  77 SE6       30.07S
FT LAUDERDALE  PTSUNNY   84  73  69 S5        30.06S
POMPANO BEACH  PTSUNNY   85  75  72 S9        30.07R
PEMBROKE PINES CLOUDY    83  76  79 SE6       30.08S
OPA LOCKA        N/A     78  73  84 S6        30.07F
MIAMI          CLOUDY    86  76  71 SE10      30.08S HX  96
WEST KENDALL   CLOUDY    80  75  84 S6        30.08S
HOMESTEAD      TSTM      81  75  83 S6        30.10R

STATION/POSITION SKY/WX   TEMP    WIND        PRES    WAVE   SWELL
                          AIR SEA DIR/SP/G            HT/PER HT/PER
                          (F)     (DEG/KT/KT) (MB)    (FT/S) (FT/S)
PORT EVERGLADES            82     160/  6/  8 1018.3
VIRGINIA KEY               83 86  160/  7/  9   N/A
LAKE WORTH                 83 85              1017.6F
FOWEY ROCKS                83 85  160/ 12/ 13 1018.8S
SETTLEMENT POINT           81     200/ 11/ 13 1019.0F

$$



USA.gov is the U.S. government's official web portal to all federal, state and local government web resources and services.